Time,TemperatureF,DewpointF,PressureIn,WindDirection,WindDirectionDegrees,WindSpeedMPH,WindSpeedGustMPH,Humidity,HourlyPrecipIn,Conditions,Clouds,dailyrainin,SoftwareType,DateUTC
2017-10-19 00:07:00,60.2,57.0,30.24,NW,315,0.0,5.0,90,0.00,,,0.00,weatherlink.com 1.10,2017-10-19 04:07:00,
2017-10-19 00:39:00,59.7,57.0,30.23,NE,44,0.0,4.0,91,0.00,,,0.00,weatherlink.com 1.10,2017-10-19 04:39:00,
2017-10-19 00:53:00,59.6,57.0,30.24,NNE,14,0.0,1.0,91,0.00,,,0.00,weatherlink.com 1.10,2017-10-19 04:53:00,
2017-10-19 01:08:00,59.4,57.0,30.24,WNW,298,0.0,1.0,92,0.00,,,0.00,weatherlink.com 1.10,2017-10-19 05:08:00,
2017-10-19 01:39:00,59.4,57.0,30.23,NW,315,0.0,2.0,92,0.00,,,0.00,weatherlink.com 1.10,2017-10-19 05:39:00,
2017-10-19 01:53:00,59.5,57.0,30.23,NE,53,2.0,4.0,92,0.00,,,0.00,weatherlink.com 1.10,2017-10-19 05:53:00,
2017-10-19 02:08:00,59.5,57.0,30.23,ENE,70,1.0,5.0,92,0.00,,,0.00,weatherlink.com 1.10,2017-10-19 06:08:00,
2017-10-19 02:24:00,59.4,57.0,30.22,ENE,67,0.0,4.0,92,0.00,,,0.00,weatherlink.com 1.10,2017-10-19 06:24:00,
2017-10-19 02:39:00,59.3,57.0,30.22,NNW,344,0.0,3.0,93,0.00,,,0.00,weatherlink.com 1.10,2017-10-19 06:39:00,
2017-10-19 02:53:00,59.3,57.0,30.22,East,94,4.0,4.0,93,0.00,,,0.00,weatherlink.com 1.10,2017-10-19 06:53:00,
2017-10-19 03:08:00,59.4,57.0,30.21,NNE,14,0.0,3.0,93,0.00,,,0.00,weatherlink.com 1.10,2017-10-19 07:08:00,
2017-10-19 03:24:00,59.7,58.0,30.21,NNE,30,0.0,2.0,93,0.00,,,0.00,weatherlink.com 1.10,2017-10-19 07:24:00,
2017-10-19 03:39:00,59.7,58.0,30.21,WNW,290,0.0,0.0,93,0.00,,,0.00,weatherlink.com 1.10,2017-10-19 07:39:00,
2017-10-19 03:55:00,59.6,58.0,30.21,NE,35,0.0,2.0,93,0.00,,,0.00,weatherlink.com 1.10,2017-10-19 07:55:00,
2017-10-19 04:09:00,59.6,58.0,30.21,NW,325,0.0,1.0,93,0.00,,,0.00,weatherlink.com 1.10,2017-10-19 08:09:00,
2017-10-19 04:25:00,59.6,58.0,30.21,NE,46,0.0,3.0,93,0.00,,,0.00,weatherlink.com 1.10,2017-10-19 08:25:00,
2017-10-19 04:39:00,59.8,58.0,30.21,SSW,196,0.0,2.0,93,0.00,,,0.00,weatherlink.com 1.10,2017-10-19 08:39:00,
2017-10-19 04:55:00,60.0,58.0,30.21,NE,53,0.0,5.0,93,0.00,,,0.00,weatherlink.com 1.10,2017-10-19 08:55:00,
2017-10-19 05:10:00,60.1,58.0,30.21,ENE,72,0.0,3.0,93,0.00,,,0.00,weatherlink.com 1.10,2017-10-19 09:10:00,
2017-10-19 05:25:00,60.3,58.0,30.21,NE,49,0.0,5.0,93,0.00,,,0.00,weatherlink.com 1.10,2017-10-19 09:25:00,
2017-10-19 05:39:00,60.3,58.0,30.21,ENE,71,0.0,4.0,93,0.00,,,0.00,weatherlink.com 1.10,2017-10-19 09:39:00,
2017-10-19 05:55:00,60.0,58.0,30.21,NNE,13,1.0,3.0,93,0.00,,,0.00,weatherlink.com 1.10,2017-10-19 09:55:00,
2017-10-19 06:11:00,59.9,58.0,30.21,North,360,0.0,4.0,93,0.00,,,0.00,weatherlink.com 1.10,2017-10-19 10:11:00,
2017-10-19 06:24:00,59.9,58.0,30.21,ENE,63,1.0,2.0,94,0.00,,,0.00,weatherlink.com 1.10,2017-10-19 10:24:00,
2017-10-19 06:40:00,60.1,58.0,30.21,NE,50,0.0,4.0,94,0.00,,,0.00,weatherlink.com 1.10,2017-10-19 10:40:00,
2017-10-19 06:56:00,60.2,59.0,30.21,NE,39,0.0,5.0,94,0.00,,,0.00,weatherlink.com 1.10,2017-10-19 10:56:00,
2017-10-19 07:10:00,60.1,58.0,30.21,East,97,0.0,2.0,94,0.00,,,0.00,weatherlink.com 1.10,2017-10-19 11:10:00,
2017-10-19 07:25:00,60.1,58.0,30.21,ESE,105,0.0,1.0,94,0.00,,,0.00,weatherlink.com 1.10,2017-10-19 11:25:00,
2017-10-19 07:41:00,60.3,59.0,30.21,NE,44,0.0,1.0,94,0.00,,,0.00,weatherlink.com 1.10,2017-10-19 11:41:00,
2017-10-19 07:55:00,61.0,59.0,30.21,North,5,1.0,4.0,94,0.00,,,0.00,weatherlink.com 1.10,2017-10-19 11:55:00,
2017-10-19 08:11:00,61.7,60.0,30.22,NW,306,0.0,5.0,94,0.00,,,0.00,weatherlink.com 1.10,2017-10-19 12:11:00,
2017-10-19 08:26:00,62.4,61.0,30.22,ENE,66,2.0,5.0,94,0.00,,,0.00,weatherlink.com 1.10,2017-10-19 12:26:00,
2017-10-19 08:41:00,63.2,61.0,30.23,ENE,76,2.0,4.0,93,0.00,,,0.00,weatherlink.com 1.10,2017-10-19 12:41:00,
2017-10-19 08:56:00,64.3,62.0,30.23,East,92,4.0,8.0,92,0.00,,,0.00,weatherlink.com 1.10,2017-10-19 12:56:00,
2017-10-19 09:12:00,65.7,62.0,30.23,ENE,57,4.0,8.0,89,0.00,,,0.00,weatherlink.com 1.10,2017-10-19 13:12:00,
2017-10-19 09:26:00,67.1,64.0,30.23,ENE,61,2.0,5.0,88,0.00,,,0.00,weatherlink.com 1.10,2017-10-19 13:26:00,
2017-10-19 09:41:00,68.5,64.0,30.23,NNE,26,3.0,8.0,84,0.00,,,0.00,weatherlink.com 1.10,2017-10-19 13:41:00,
2017-10-19 09:57:00,70.1,64.0,30.23,NNE,15,1.0,8.0,80,0.00,,,0.00,weatherlink.com 1.10,2017-10-19 13:57:00,
2017-10-19 10:12:00,71.4,63.0,30.23,East,101,1.0,9.0,75,0.00,,,0.00,weatherlink.com 1.10,2017-10-19 14:12:00,
2017-10-19 10:27:00,72.4,64.0,30.23,NE,45,3.0,8.0,74,0.00,,,0.00,weatherlink.com 1.10,2017-10-19 14:27:00,
2017-10-19 10:42:00,73.5,65.0,30.23,East,100,2.0,6.0,74,0.00,,,0.00,weatherlink.com 1.10,2017-10-19 14:42:00,
2017-10-19 10:58:00,73.9,64.0,30.23,NE,44,0.0,6.0,71,0.00,,,0.00,weatherlink.com 1.10,2017-10-19 14:58:00,
2017-10-19 11:11:00,74.6,65.0,30.23,East,92,1.0,9.0,72,0.00,,,0.00,weatherlink.com 1.10,2017-10-19 15:11:00,
2017-10-19 11:27:00,74.8,64.0,30.23,SE,126,0.0,10.0,68,0.00,,,0.00,weatherlink.com 1.10,2017-10-19 15:27:00,
2017-10-19 11:43:00,76.0,64.0,30.23,SSE,154,0.0,5.0,66,0.00,,,0.00,weatherlink.com 1.10,2017-10-19 15:43:00,
2017-10-19 11:57:00,76.0,63.0,30.23,SSE,154,1.0,6.0,64,0.00,,,0.00,weatherlink.com 1.10,2017-10-19 15:57:00,
2017-10-19 12:13:00,76.5,63.0,30.22,ENE,69,3.0,6.0,64,0.00,,,0.00,weatherlink.com 1.10,2017-10-19 16:13:00,
2017-10-19 12:27:00,76.8,61.0,30.22,NW,321,4.0,6.0,58,0.00,,,0.00,weatherlink.com 1.10,2017-10-19 16:27:00,
2017-10-19 12:43:00,77.5,61.0,30.21,SE,127,4.0,6.0,58,0.00,,,0.00,weatherlink.com 1.10,2017-10-19 16:43:00,
2017-10-19 12:59:00,77.9,62.0,30.20,East,82,2.0,4.0,59,0.00,,,0.00,weatherlink.com 1.10,2017-10-19 16:59:00,
2017-10-19 13:13:00,78.7,61.0,30.20,NNW,340,2.0,5.0,55,0.00,,,0.00,weatherlink.com 1.10,2017-10-19 17:13:00,
2017-10-19 13:29:00,77.3,61.0,30.19,East,80,3.0,5.0,58,0.00,,,0.00,weatherlink.com 1.10,2017-10-19 17:29:00,
2017-10-19 13:43:00,76.8,62.0,30.18,NNE,30,3.0,6.0,60,0.00,,,0.00,weatherlink.com 1.10,2017-10-19 17:43:00,
2017-10-19 13:59:00,77.7,61.0,30.17,NE,43,0.0,7.0,57,0.00,,,0.00,weatherlink.com 1.10,2017-10-19 17:59:00,
2017-10-19 14:14:00,78.6,61.0,30.16,SE,134,5.0,5.0,55,0.00,,,0.00,weatherlink.com 1.10,2017-10-19 18:14:00,
2017-10-19 14:28:00,78.9,60.0,30.16,NNW,327,1.0,6.0,52,0.00,,,0.00,weatherlink.com 1.10,2017-10-19 18:28:00,
2017-10-19 14:44:00,79.1,59.0,30.15,East,81,2.0,6.0,51,0.00,,,0.00,weatherlink.com 1.10,2017-10-19 18:44:00,
2017-10-19 14:59:00,78.9,60.0,30.15,NNW,330,0.0,4.0,52,0.00,,,0.00,weatherlink.com 1.10,2017-10-19 18:59:00,
2017-10-19 15:14:00,77.8,60.0,30.15,NW,305,0.0,3.0,55,0.00,,,0.00,weatherlink.com 1.10,2017-10-19 19:14:00,
2017-10-19 15:30:00,77.7,63.0,30.15,ESE,121,0.0,7.0,61,0.00,,,0.00,weatherlink.com 1.10,2017-10-19 19:30:00,
2017-10-19 15:44:00,75.5,63.0,30.15,SSW,203,2.0,7.0,65,0.00,,,0.00,weatherlink.com 1.10,2017-10-19 19:44:00,
2017-10-19 15:59:00,75.0,63.0,30.15,SSE,163,2.0,5.0,67,0.00,,,0.00,weatherlink.com 1.10,2017-10-19 19:59:00,
2017-10-19 16:14:00,75.3,64.0,30.15,SE,138,1.0,6.0,67,0.00,,,0.00,weatherlink.com 1.10,2017-10-19 20:14:00,
2017-10-19 16:30:00,76.2,63.0,30.15,SSE,168,2.0,5.0,64,0.00,,,0.00,weatherlink.com 1.10,2017-10-19 20:30:00,
2017-10-19 16:44:00,75.2,63.0,30.15,SSE,153,1.0,7.0,65,0.00,,,0.00,weatherlink.com 1.10,2017-10-19 20:44:00,
2017-10-19 17:00:00,75.1,62.0,30.14,South,173,3.0,5.0,64,0.00,,,0.00,weatherlink.com 1.10,2017-10-19 21:00:00,
2017-10-19 17:15:00,74.8,62.0,30.14,South,182,1.0,6.0,65,0.00,,,0.00,weatherlink.com 1.10,2017-10-19 21:15:00,
2017-10-19 17:29:00,74.2,63.0,30.14,South,180,1.0,5.0,67,0.00,,,0.00,weatherlink.com 1.10,2017-10-19 21:29:00,
2017-10-19 17:45:00,73.4,62.0,30.14,SSE,168,1.0,2.0,68,0.00,,,0.00,weatherlink.com 1.10,2017-10-19 21:45:00,
2017-10-19 18:00:00,72.5,63.0,30.14,SSE,152,0.0,2.0,71,0.00,,,0.00,weatherlink.com 1.10,2017-10-19 22:00:00,
2017-10-19 18:14:00,71.8,62.0,30.14,SSE,152,0.0,0.0,72,0.00,,,0.00,weatherlink.com 1.10,2017-10-19 22:14:00,
2017-10-19 18:30:00,70.6,62.0,30.14,SSE,152,0.0,0.0,75,0.00,,,0.00,weatherlink.com 1.10,2017-10-19 22:30:00,
2017-10-19 18:46:00,69.1,62.0,30.15,SSE,153,0.0,0.0,78,0.00,,,0.00,weatherlink.com 1.10,2017-10-19 22:46:00,
2017-10-19 19:00:00,67.7,62.0,30.15,SSE,153,0.0,0.0,82,0.00,,,0.00,weatherlink.com 1.10,2017-10-19 23:00:00,
2017-10-19 19:15:00,66.6,61.0,30.15,SSE,153,0.0,0.0,82,0.00,,,0.00,weatherlink.com 1.10,2017-10-19 23:15:00,
2017-10-19 19:31:00,65.4,61.0,30.16,SSE,153,0.0,0.0,86,0.00,,,0.00,weatherlink.com 1.10,2017-10-19 23:31:00,
2017-10-19 19:45:00,64.2,61.0,30.16,SSE,153,0.0,0.0,88,0.00,,,0.00,weatherlink.com 1.10,2017-10-19 23:45:00,
2017-10-19 20:01:00,63.2,60.0,30.16,SSE,153,0.0,0.0,90,0.00,,,0.00,weatherlink.com 1.10,2017-10-20 00:01:00,
2017-10-19 20:16:00,62.5,60.0,30.16,SSE,153,0.0,0.0,90,0.00,,,0.00,weatherlink.com 1.10,2017-10-20 00:16:00,
2017-10-19 20:30:00,61.9,59.0,30.16,SSE,153,0.0,1.0,91,0.00,,,0.00,weatherlink.com 1.10,2017-10-20 00:30:00,
2017-10-19 20:46:00,61.2,59.0,30.16,SSE,152,0.0,0.0,91,0.00,,,0.00,weatherlink.com 1.10,2017-10-20 00:46:00,
2017-10-19 21:00:00,60.7,58.0,30.17,SSE,153,0.0,0.0,92,0.00,,,0.00,weatherlink.com 1.10,2017-10-20 01:00:00,
2017-10-19 21:16:00,60.3,58.0,30.17,SSE,153,0.0,0.0,92,0.00,,,0.00,weatherlink.com 1.10,2017-10-20 01:16:00,
2017-10-19 21:32:00,59.8,58.0,30.17,SSE,153,0.0,0.0,93,0.00,,,0.00,weatherlink.com 1.10,2017-10-20 01:32:00,
2017-10-19 21:46:00,59.4,57.0,30.17,SSE,153,0.0,0.0,93,0.00,,,0.00,weatherlink.com 1.10,2017-10-20 01:46:00,
2017-10-19 22:02:00,58.9,57.0,30.17,SSE,153,0.0,0.0,93,0.00,,,0.00,weatherlink.com 1.10,2017-10-20 02:02:00,
2017-10-19 22:16:00,58.5,57.0,30.17,SSE,153,0.0,0.0,93,0.00,,,0.00,weatherlink.com 1.10,2017-10-20 02:16:00,
2017-10-19 22:31:00,58.1,56.0,30.17,SSE,153,0.0,0.0,93,0.00,,,0.00,weatherlink.com 1.10,2017-10-20 02:31:00,
2017-10-19 22:47:00,57.9,56.0,30.17,SSE,153,0.0,0.0,94,0.00,,,0.00,weatherlink.com 1.10,2017-10-20 02:47:00,
2017-10-19 23:01:00,57.7,56.0,30.17,SSE,153,0.0,0.0,94,0.00,,,0.00,weatherlink.com 1.10,2017-10-20 03:01:00,
2017-10-19 23:18:00,57.3,56.0,30.17,SSE,153,0.0,0.0,94,0.00,,,0.00,weatherlink.com 1.10,2017-10-20 03:18:00,